DELTA 1 DEB, 10240

Orbit data source: Space-Track

DELTA 1 DEB, 10240 is space debris in LEO originally from a launch on Thu, 14 Jul 1977 UTC launched from the Air Force Eastern Test Range (AFETR). Debris objects in space refer to the collection of defunct objects orbiting the Earth. Examples of debris include non-operational satellites, rocket bodies, and fragments generated from explosions, collisions, or faulty payload assembly.

Loading next visibility...
Identifier
10240, 1977-065BR
Orbit
LEO
Country
Flag of USUS
Related business
Manufacturer
Unknown
Mission
Spacecraft
Bus & Motor
Unknown
Mass
Unknown
Launch date (UTC)
1977-07-14 (48 years ago)
Launch vehicle
Unknown
Launch site
Air Force Eastern Test Range (AFETR)
Object type
Payload
Rocket body
Debris
Shape & HBR
Unknown shape, 0.1 m
Radar Cross Section
Small (<0.1 m²)

Expand to show TLE details & history
Last TLE update: 14 hours ago

TLE from 14 hours ago
0 DELTA 1 DEB
1 10240U 77065BR  25349.59193183  .00001235  00000-0  83506-3 0  9990
2 10240  29.3878  85.8769 0669738   3.4477 357.0412 13.22492950 30139
Epoch: 2025-12-15T14:12Z
TLE epoch observation values (Epoch: 2025-12-15T14:12:22.910Z)
Latitude
-0.00001°
Longitude
148.29314°
Altitude
668.716 km
Speed
7.772 km/s
True Right ascension
05h 43m 30s
True Declination
0° 00' 00"
Sunlit
Object was in full shadow at epoch
Visualization orbit readout
Latitude
Unknown
Longitude
Unknown
Altitude
Unknown
Speed
Unknown
Apparent Right ascension
Unknown
Apparent Declination
Unknown
Sunlit
N/A
Visualization observer readout
Local Sidereal Time
02:53:20
Azimuth
Unknown
Elevation
Unknown
Doppler factor
Unknown
Orbital elements
Apogee altitude
1,685.097 km
Perigee altitude
672.841 km
Semi-major axis
7,557.106 km
Eccentricity
0.06697
Inclination
29.3878°
RAAN
85.8769°
Arg. of periapsis
3.4477°
True anomaly
356.60906°
Mean anomaly
357.0412°
Eccentric anomaly
356.82893°
Mean motion
3.30377 °/min
Orbital period
108.97 mins
BSTAR
0.00083506
Loading maneuver chart data...
Computing Atmospheric mass density...

Documentation

Showing up to 5 results
|